This demonstration page uses our WeatherBlox Daily Observations layout. Learn more.

Left ArrowRight Arrow

Hourly Observations for January 26, 2022

Temp ( °F °C ) Dew Point ( °F °C ) Humidity (%) Winds ( mph kmh ) Pressure ( in mb ) Visibility ( mi km ) Precip ( " mm )
12:53 am 00:53 Clear 45 7.2 37 2.8 74 74 E 25 41 30.04 1017 10 16 0.00 0.00
1:53 am 01:53 Clear 43 6.1 37 2.8 80 80 E 23 37 30.05 1018 10 16 0.00 0.00
2:53 am 02:53 Mostly Cloudy 39 3.9 26 -3.3 60 60 ENE 18 30 30.08 1019 10 16 0.00 0.00
3:28 am 03:28 Mostly Cloudy 39 3.9 24 -4.4 55 55 ENE 18 30 30.20 1023 10 16 0.00 0.00
3:53 am 03:53 Cloudy 38 3.3 21 -6.1 51 51 E 16 26 30.09 1019 10 16 0.00 0.00
4:53 am 04:53 Cloudy 35 1.7 19 -7.2 52 52 NE 14 22 30.13 1020 10 16 0.00 0.00
5:53 am 05:53 Cloudy 32 0 19 -7.2 59 59 NE 15 24 30.17 1022 10 16 0.00 0.00
6:53 am 06:53 Cloudy 28 -2.2 22 -5.6 78 78 NE 17 28 30.21 1023 7 11 0.00 0.00
7:53 am 07:53 Cloudy with Mist and Fog 26 -3.3 22 -5.6 84 84 NE 20 31 30.25 1024 4 6 0.00 0.00
8:01 am 08:01 Cloudy with Mist and Fog 26 -3.3 22 -5.6 84 84 NNE 18 30 30.40 1030 4 6 0.00 0.00
8:37 am 08:37 Cloudy with Mist and Fog 26 -3.3 23 -5 88 88 NNE 16 26 30.41 1030 3 4 0.00 0.00
8:48 am 08:48 Cloudy with Mist and Fog 25 -4 23 -5 93 93 NE 18 30 30.42 1030 2 3 0.00 0.00
8:53 am 08:53 Cloudy with Mist and Fog 25 -3.9 23 -5 92 92 NNE 15 24 30.27 1025 2 3 0.00 0.00
9:10 am 09:10 Cloudy with Mist and Fog 25 -3.9 23 -5 92 92 NNE 20 31 30.43 1031 2 3 0.00 0.00
9:53 am 09:53 Cloudy with Mist and Fog 26 -3.3 24 -4.4 92 92 NE 16 26 30.28 1025 3 4 0.00 0.00
10:16 am 10:16 Cloudy with Mist and Fog 27 -2.8 24 -4.4 89 89 NNE 13 20 30.43 1030 3 5 0.00 0.00
10:53 am 10:53 Cloudy with Mist and Fog 27 -2.8 24 -4.4 89 89 NE 9 15 30.29 1026 5 8 0.00 0.00
11:53 am 11:53 Cloudy 27 -2.8 24 -4.4 89 89 N 6 9 30.29 1026 7 11 0.00 0.00
12:53 pm 12:53 Cloudy 28 -2.2 25 -3.9 88 88 NNW 6 9 30.27 1025 10 16 0.00 0.00
1:53 pm 13:53 Cloudy 29 -1.7 26 -3.3 89 89 Calm 30.24 1024 10 16 0.00 0.00
2:53 pm 14:53 Cloudy 30 -1.1 26 -3.3 85 85 N 6 9 30.22 1023 10 16 0.00 0.00
3:04 pm 15:04 Cloudy 31 -0.6 26 -3.3 82 82 NNE 7 11 30.31 1026 10 16 0.00 0.00
3:53 pm 15:53 Cloudy 32 0 26 -3.3 79 79 NE 5 7 30.20 1023 10 16 0.00 0.00
4:45 pm 16:45 Cloudy 33 0.6 26 -3.3 75 75 VRB 3 6 30.28 1025 10 16 0.00 0.00
4:53 pm 16:53 Cloudy 33 0.6 26 -3.3 75 75 NNE 5 7 30.19 1023 10 16 0.00 0.00
5:53 pm 17:53 Cloudy 33 0.6 26 -3.3 75 75 ESE 3 6 30.20 1023 10 16 0.00 0.00
6:53 pm 18:53 Cloudy 33 0.6 25 -3.9 72 72 SE 6 9 30.22 1023 10 16 0.00 0.00
7:53 pm 19:53 Cloudy 33 0.6 26 -3.3 75 75 S 8 13 30.23 1024 10 16 0.00 0.00
8:09 pm 20:09 Cloudy 32 0 26 -3.3 79 79 S 8 13 30.31 1027 10 16 0.00 0.00
8:53 pm 20:53 Cloudy 32 0 27 -2.8 82 82 S 8 13 30.24 1024 10 16 0.00 0.00
9:53 pm 21:53 Mostly Cloudy 31 -0.6 27 -2.8 85 85 SSW 6 9 30.25 1024 9 14 0.00 0.00
10:07 pm 22:07 Cloudy 32 0 27 -2.8 82 82 SSW 5 7 30.32 1027 9 14 0.00 0.00
10:30 pm 22:30 Cloudy 32 0 28 -2.2 85 85 SSW 6 9 30.32 1027 9 14 0.00 0.00
10:53 pm 22:53 Cloudy 31 -0.6 27 -2.8 85 85 S 8 13 30.25 1025 9 14 0.00 0.00
11:53 pm 23:53 Cloudy with Mist and Fog 30 -1.1 28 -2.2 92 92 S 5 7 30.26 1025 6 10 0.00 0.00

Powered by AerisWeather